Location: Songkhla
(7.2000°N, 100.6000°E)
Time: 18:27:30
(UTC+07:00)

ISS - Visible Passes

Search period start: 14 May 2021 00:00
Search period end: 24 May 2021 00:00
Orbit: 417 x 422 km, 51.6° (Epoch: 14 May)

Date Brightness Start Highest point End Pass type
(mag) Time Alt. Az. Time Alt. Az. Time Alt. Az.
14 May -0.6 19:55:09 10° W 19:57:17 16° NW 19:59:26 10° NNW visible
15 May -1.8 19:06:47 10° WSW 19:09:51 34° NW 19:12:55 10° NNE visible
16 May -0.8 05:03:46 10° N 05:06:21 20° NE 05:08:56 10° ESE visible
18 May -3.9 05:04:49 10° NW 05:08:10 69° SW 05:11:31 10° SSE visible
19 May -2.7 04:20:50 46° ENE 04:20:50 46° ENE 04:24:00 10° SE visible
